Regional Weather Roundup
Issued by NWS

Home | Current Version | Previous Version | Graphics & Text | Print | Product List | Glossary On
Versions: 1 2 3 4 5 6 7 8 9 10 11 12 13 14 15 16 17 18 19 20 21 22 23 24 25 26 27 28 29 30 31 32 33 34 35 36 37 38 39 40 41 42 43 44 45 46 47 48 49 50
000
ASUS43 KMKX 242200
RWRWI

WISCONSIN REGIONAL WEATHER ROUNDUP
NATIONAL WEATHER SERVICE MILWAUKEE/SULLIVAN WI
500 PM CDT FRI APR 24 2015

NOTE: "FAIR" INDICATES FEW OR NO CLOUDS BELOW 12,000 FEET WITH NO
SIGNIFICANT WEATHER AND/OR OBSTRUCTIONS TO VISIBILITY.

WIZ001-002-006>008-014>016-023>028-242300-
NORTHWEST WISCONSIN

CITY           SKY/WX    TMP DP  RH WIND       PRES   REMARKS
SUPERIOR ARPT  CLOUDY    36  32  85 E14       29.95F WCI  27
ASHLAND        CLOUDY    42  31  64 E7        29.97F
HAYWARD        CLOUDY    40  33  76 E12       29.90F WCI  33
SIREN          CLOUDY    50  23  34 E8G20     29.85F
CUMBERLAND     CLOUDY    50  23  34 E10G16    29.85S
RICE LAKE      CLOUDY    52  23  32 E12       29.87S
CHETEK         CLOUDY    53  25  34 CALM      29.86F
LADYSMITH      CLOUDY    51  19  28 NE12G17   29.89F
EAU CLAIRE     NOT AVBL
MENOMONIE      CLOUDY    51  32  48 SE14      29.86F
NEW RICHMOND   CLOUDY    49  32  52 SE17      29.83F
OSCEOLA        CLOUDY    50  34  55 SE15G24   29.86S
$$

WIZ003>005-009-010-017-018-242300-
NORTH CENTRAL WISCONSIN

CITY           SKY/WX    TMP DP  RH WIND       PRES   REMARKS
MANITOWISH WTR CLOUDY    38  33  80 S7        29.95F WCI  33
ARBOR VITAE    DRIZZLE   42  32  69 S6        29.95F
WOODRUFF       DRIZZLE   42  32  69 S6        29.95F
RHINELANDER    CLOUDY    45  24  43 E8        29.95F
EAGLE RIVER    CLOUDY    45  23  41 S5        29.94F
LAND O LAKES   CLOUDY    48  15  26 CALM      29.94F
PHILLIPS       CLOUDY    44  27  50 NE10      29.91F
TOMAHAWK       CLOUDY    49  17  28 CALM      29.93F
MEDFORD        CLOUDY    53  21  28 SE9       29.88F
MERRILL        CLOUDY    54  20  26 E10G16    29.91F
$$

WIZ029-030-035-036-043>047-242300-
CENTRAL WISCONSIN

CITY           SKY/WX    TMP DP  RH WIND       PRES   REMARKS
WAUSAU         PTSUNNY   55  18  23 SE10      29.88F
MOSINEE        PTSUNNY   54  21  28 SE10      29.90F
MARSHFIELD     CLOUDY    56  21  25 SE12      29.87F
STEVENS POINT  CLOUDY    54  22  29 E12       29.91S
WAUPACA        CLOUDY    55  23  29 E15       29.93F
WAUTOMA        NOT AVBL
WISC RAPIDS    CLOUDY    56  15  20 S9        29.90F
CAMP DOUGLAS   NOT AVBL
$$

WIZ011>013-019>022-031-037>040-048>050-242300-
NORTHEAST WISCONSIN

CITY           SKY/WX    TMP DP  RH WIND       PRES   REMARKS
ANTIGO         PTSUNNY   50  22  33 E10       29.94F
SHAWANO        PTSUNNY   52  25  35 E15       29.96F
OCONTO         CLOUDY    44  21  40 SE8       30.01F
STURGEON BAY   MOSUNNY   41  21  45 E9        30.05F
GREEN BAY      CLOUDY    52  22  30 SE14      29.98F
MANITOWOC      NOT AVBL
APPLETON       PTSUNNY   50  19  29 E13       29.96F
CLINTONVILLE   PTSUNNY   54  21  28 SE10      29.94F
OSHKOSH        CLOUDY    51  27  39 E16       29.95F
$$

WIZ032>034-041-042-053>061-242300-
SOUTHWEST WISCONSIN

CITY           SKY/WX    TMP DP  RH WIND       PRES   REMARKS
LA CROSSE      LGT RAIN  48  40  73 SE12      29.87F
SPARTA         LGT RAIN  48  33  55 SE8       29.90R
VIROQUA        CLOUDY    42  42 100 E12       29.88F
BOSCOBEL       CLOUDY    44  41  89 NE3       29.91S
PRAIRIE DU CHI CLOUDY    43  41  92 E7        29.88R
PLATTEVILLE    CLOUDY    45  40  82 E16       29.87F
$$

WIZ056-057-062-063-064-067-068-242300-
SOUTH CENTRAL WISCONSIN

CITY           SKY/WX    TMP DP  RH WIND       PRES   REMARKS
REEDSBURG      RAIN      43  39  86 SE3       29.92S
BARABOO/DELLS  HVY RAIN  44  37  75 SE7       29.92F
LONE ROCK      NOT AVBL
MINERAL POINT  LGT RAIN  45  39  81 E10       29.88F
MADISON        LGT RAIN  43  38  82 SE10      29.94F
MIDDLETON      CLOUDY    43  40  88 SE8       29.93F
WATERTOWN      LGT RAIN  46  34  64 CALM      29.95S
MONROE         LGT RAIN  43  36  75 NE10      29.91F
JANESVILLE     CLOUDY    46  37  71 E8        29.93F
$$

WIZ051-052-058>065-066-070>072-242300-
SOUTHEAST WISCONSIN

CITY           SKY/WX    TMP DP  RH WIND       PRES   REMARKS
MILWAUKEE      CLOUDY    44  26  49 SE5       29.99S
WAUKESHA       RAIN      43  30  61 SE12      29.98S FOG
MILWAUKEE/TIMM CLOUDY    46  16  29 SE7       30.00R
RACINE         LGT RAIN  43  33  68 CALM      30.00S
BURLINGTON     LGT RAIN  42  35  76 E5        29.97S
KENOSHA        LGT RAIN  42  35  76 E6        29.98S
FOND DU LAC    CLOUDY    50  22  33 SE15      29.95F
SHEBOYGAN      PTSUNNY   45  22  40 E12       30.00F
WEST BEND      CLOUDY    43  21  42 E8        29.99R
JUNEAU         LGT RAIN  50  29  43 SE12      29.96R
$$

LSZ147-162-242300-
LAKE SUPERIOR

STATION/POSITION TIME  TEMP    WIND        PRES    WAVE
                       AIR SEA DIR/SP/G            HT/PER
                 (UTC) (F)     (DEG/KT/KT) (MB)    (FT/S)
W MID LAKE BUOY  2050   34 35   60/ 17/ 21 1017.3F   2/ 3
DEVILS ISLAND    2100   36      90/ 11/ 12 1016.7F
PORT WING        2100   39      30/  4/  4 1015.2
SAXON HARBOR     2140   38      CALM  /  3 1014.9F
$$

LMZ867-665-643>646-242300-
LAKE MICHIGAN

STATION/POSITION TIME  TEMP    WIND        PRES    WAVE
                       AIR SEA DIR/SP/G            HT/PER
                 (UTC) (F)     (DEG/KT/KT) (MB)    (FT/S)
CHAMBERS ISLAND  2100   43     110/  6/ 10 1017.6F
NORTHPORT PIER   2100   36     140/ 10/ 11 1017.6F
SISTER BAY       2117   43     160/  9/ 13   N/A
KEWAUNEE LAKESHO 2100   40      70/  5/  7 1016.6F
SHEBOYGAN LAKESH 2100   38      50/  5/  6 1017.3F
PORT WASHINGTON  2100   40      50/  4/  6 1016.3F
MILWAUKEE LAKESH 2100   40      80/  2/  3   N/A
KENOSHA   LAKESH 2100   42      90/  2/  4 1015.2F
$$

TC  - TEMPERATURE IN CELSIUS
VSB - VISIBILITY IN STATUTE MILES
WCI - WIND CHILL INDEX
HX  - HEAT INDEX



USA.gov is the U.S. government's official web portal to all federal, state and local government web resources and services.